Mountain Home, Arkansas, United States (72653)
Lat: 36.34N, Lon: 92.39W
Wx Zone: ARZ005
Local Info
Past Weather Observations for Sunday, March 22, 2015

NOTE: This archive is for the closest National Weather Service station to Mountain Home. Information may differ from the station used for current weather conditions.

Click here for Long-term Archive

Time Weather Temperature Dewpoint Humidity Pressure Winds Precip Visibility
23:53
Clear
46°F / 8°C 43°F / 6°C 87% 30.09 in
(1019 mb)
Calm - 10SM
22:53
Clear
52°F / 11°C 45°F / 7°C 77% 30.09 in
(1019 mb)
Calm - 10SM
21:53
Clear
52°F / 11°C 43°F / 6°C 72% 30.06 in
(1018 mb)
SW 3.5 mph
(SW 6 kph)
- 10SM
20:53
Clear
52°F / 11°C 43°F / 6°C 72% 30.06 in
(1018 mb)
S 5.8 mph
(S 9 kph)
- 10SM
19:53
Clear
54°F / 12°C 43°F / 6°C 67% 30.04 in
(1017 mb)
S 4.6 mph
(S 7 kph)
- 10SM
18:53
Clear
57°F / 14°C 43°F / 6°C 59% 30.04 in
(1017 mb)
SW 4.6 mph
(SW 7 kph)
- 10SM
17:53
Clear
61°F / 16°C 41°F / 5°C 48% 30.04 in
(1017 mb)
S 4.6 mph
(S 7 kph)
- 10SM
16:53
Clear
63°F / 17°C 39°F / 4°C 42% 30.01 in
(1016 mb)
Calm - 10SM
15:53
Clear
63°F / 17°C 36°F / 2°C 37% 30.01 in
(1016 mb)
Calm - 10SM
14:53
Clear
63°F / 17°C 34°F / 1°C 34% 30.01 in
(1016 mb)
SE 4.6 mph
(SE 7 kph)
- 10SM
13:53
Clear
63°F / 17°C 30°F / -1°C 30% 30.04 in
(1017 mb)
Calm - 10SM
12:53
Clear
61°F / 16°C 37°F / 3°C 42% 30.04 in
(1017 mb)
Variable 4.6 mph
(Variable 7 kph)
- 10SM
11:53
Partly Cloudy
57°F / 14°C 37°F / 3°C 48% 30.06 in
(1018 mb)
Calm - 10SM
10:53
Partly Cloudy
55°F / 13°C 45°F / 7°C 67% 30.06 in
(1018 mb)
Calm - 10SM
09:53
Overcast
52°F / 11°C 46°F / 8°C 82% 30.06 in
(1018 mb)
Variable 3.5 mph
(Variable 6 kph)
- 9SM
08:53
Overcast
50°F / 10°C 46°F / 8°C 88% 30.06 in
(1018 mb)
Calm 0.00 in
(0.00 mm)
9SM
07:53
Overcast
Light Rain
48°F / 9°C 46°F / 8°C 94% 30.06 in
(1018 mb)
SSE 3.5 mph
(SSE 6 kph)
0.01 in
(0.25 mm)
7SM
06:53
Overcast
Light Rain
48°F / 9°C 45°F / 7°C 87% 30.04 in
(1017 mb)
Calm 0.01 in
(0.25 mm)
8SM
05:53
Overcast
48°F / 9°C 45°F / 7°C 87% 30.04 in
(1017 mb)
Calm - 10SM
04:53
Overcast
48°F / 9°C 45°F / 7°C 87% 30.04 in
(1017 mb)
Calm - 10SM
03:53
Overcast
48°F / 9°C 43°F / 6°C 82% 30.04 in
(1017 mb)
Calm - 10SM
02:53
Mostly Cloudy
50°F / 10°C 43°F / 6°C 76% 30.04 in
(1017 mb)
ENE 3.5 mph
(ENE 6 kph)
- 10SM
01:53
Partly Cloudy
50°F / 10°C 43°F / 6°C 76% 30.06 in
(1018 mb)
ENE 4.6 mph
(ENE 7 kph)
- 10SM
00:53
Clear
50°F / 10°C 41°F / 5°C 71% 30.06 in
(1018 mb)
ENE 3.5 mph
(ENE 6 kph)
- 10SM
Time Weather Temperature Dewpoint Humidity Pressure Winds Precip Visibility


Weather for websites

WeatherForYou.com, LLC is not responsible for any damages or problems caused by this service. Current weather conditions are obtained from the closest station including government and personal stations which may have varying degrees of accuracy. Weather forecasts are derived from the NOAA NDFD. Like all things, this site belongs to Jesus Christ... He just trusts me to maintain it. If you have any questions or comments email webmaster@weatherforyou.com

Copyright © 2015, WeatherForYou.com LLC. All rights reserved.